Stündliche Wetter Cedar Park

Heute, 28 Januar, Donnerstag

Zeit Temperatur Niederschläge Wind Luftdruck Luftfeuchtigkeit
00:00 +4°C° 0 mm 3 m/S 748 mmHg 67%
01:00 +4°C° 0 mm 3 m/S 748 mmHg 69%
02:00 +3°C° 0 mm 3 m/S 748 mmHg 71%
03:00 +3°C° 0 mm 3 m/S 748 mmHg 69%
04:00 +3°C° 0 mm 3 m/S 749 mmHg 68%
05:00 +2°C° 0 mm 3 m/S 749 mmHg 67%
06:00 +2°C° 0 mm 3 m/S 749 mmHg 66%
07:00 +3°C° 0 mm 3 m/S 749 mmHg 65%
08:00 +3°C° 0 mm 3 m/S 750 mmHg 64%
09:00 +4°C° 0 mm 3 m/S 750 mmHg 59%
10:00 +7°C° 0 mm 3 m/S 749 mmHg 54%
11:00 +8°C° 0 mm 3 m/S 749 mmHg 48%
12:00 +9°C° 0 mm 2 m/S 748 mmHg 46%
13:00 +10°C° 0 mm 2 m/S 747 mmHg 44%
14:00 +12°C° 0 mm 2 m/S 747 mmHg 42%
15:00 +10°C° 0 mm 2 m/S 746 mmHg 46%
16:00 +10°C° 0 mm 2 m/S 746 mmHg 50%
17:00 +9°C° 0 mm 2 m/S 746 mmHg 54%
18:00 +8°C° 0 mm 2 m/S 746 mmHg 57%
19:00 +8°C° 0 mm 2 m/S 746 mmHg 61%
20:00 +7°C° 0 mm 2 m/S 746 mmHg 64%
21:00 +7°C° 0 mm 2 m/S 746 mmHg 65%
22:00 +7°C° 0 mm 2 m/S 746 mmHg 67%
23:00 +6°C° 0 mm 2 m/S 746 mmHg 68%

Morgen, 29 Januar, Freitag

Zeit Temperatur Niederschläge Wind Luftdruck Luftfeuchtigkeit
00:00 +6°C° 0 mm 2 m/S 745 mmHg 71%
01:00 +5°C° 0 mm 3 m/S 745 mmHg 74%
02:00 +5°C° 0 mm 3 m/S 744 mmHg 76%
03:00 +6°C° 0 mm 2 m/S 744 mmHg 79%
04:00 +6°C° 0 mm 2 m/S 743 mmHg 83%
05:00 +5°C° 0 mm 2 m/S 743 mmHg 86%
06:00 +6°C° 0 mm 2 m/S 743 mmHg 82%
07:00 +7°C° 0 mm 2 m/S 743 mmHg 78%
08:00 +8°C° 0 mm 3 m/S 743 mmHg 75%
09:00 +10°C° 0 mm 3 m/S 743 mmHg 72%
10:00 +12°C° 0 mm 4 m/S 742 mmHg 69%
11:00 +14°C° 0 mm 5 m/S 742 mmHg 66%
12:00 +15°C° 0 mm 5 m/S 741 mmHg 65%
13:00 +16°C° 0 mm 6 m/S 740 mmHg 65%
14:00 +16°C° 0 mm 6 m/S 739 mmHg 64%
15:00 +16°C° 0 mm 5 m/S 739 mmHg 68%
16:00 +15°C° 0 mm 5 m/S 738 mmHg 72%
17:00 +15°C° 0 mm 4 m/S 738 mmHg 76%
18:00 +14°C° 0 mm 5 m/S 738 mmHg 78%
19:00 +14°C° 0 mm 6 m/S 738 mmHg 80%
20:00 +14°C° 0 mm 6 m/S 737 mmHg 82%
21:00 +14°C° 0 mm 6 m/S 737 mmHg 84%
22:00 +14°C° 0 mm 6 m/S 736 mmHg 85%
23:00 +14°C° 0 mm 6 m/S 736 mmHg 86%

übermorgen, 30 Januar, Samstag

Zeit Temperatur Niederschläge Wind Luftdruck Luftfeuchtigkeit
00:00 +15°C° 0 mm 7 m/S 735 mmHg 86%
01:00 +15°C° 0 mm 7 m/S 734 mmHg 86%
02:00 +15°C° 0 mm 8 m/S 733 mmHg 85%
03:00 +15°C° 0 mm 8 m/S 733 mmHg 85%
04:00 +16°C° 0 mm 8 m/S 733 mmHg 85%
05:00 +16°C° 0 mm 8 m/S 732 mmHg 85%
06:00 +17°C° 0 mm 7 m/S 733 mmHg 84%
07:00 +17°C° 0 mm 6 m/S 733 mmHg 83%
08:00 +17°C° 0 mm 5 m/S 734 mmHg 82%
09:00 +19°C° 0 mm 5 m/S 734 mmHg 74%
10:00 +20°C° 0 mm 6 m/S 734 mmHg 65%
11:00 +21°C° 0 mm 6 m/S 734 mmHg 56%
12:00 +22°C° 0 mm 6 m/S 734 mmHg 46%
13:00 +23°C° 0 mm 6 m/S 733 mmHg 35%
14:00 +24°C° 0 mm 6 m/S 733 mmHg 25%
15:00 +22°C° 0 mm 5 m/S 733 mmHg 28%
16:00 +20°C° 0 mm 5 m/S 733 mmHg 30%
17:00 +19°C° 0 mm 4 m/S 733 mmHg 33%
18:00 +18°C° 0 mm 4 m/S 734 mmHg 32%
19:00 +16°C° 0 mm 3 m/S 734 mmHg 32%
20:00 +14°C° 0 mm 3 m/S 734 mmHg 32%
21:00 +14°C° 0 mm 3 m/S 735 mmHg 32%
22:00 +13°C° 0 mm 3 m/S 735 mmHg 33%
23:00 +13°C° 0 mm 3 m/S 735 mmHg 34%

31 Januar, Sonntag

Zeit Temperatur Niederschläge Wind Luftdruck Luftfeuchtigkeit
00:00 +12°C° 0 mm 3 m/S 736 mmHg 35%
01:00 +12°C° 0 mm 3 m/S 736 mmHg 36%
02:00 +12°C° 0 mm 3 m/S 736 mmHg 37%
03:00 +11°C° 0 mm 3 m/S 737 mmHg 39%
04:00 +11°C° 0 mm 3 m/S 737 mmHg 42%
05:00 +10°C° 0 mm 4 m/S 738 mmHg 44%
06:00 +11°C° 0 mm 4 m/S 739 mmHg 47%
07:00 +10°C° 0 mm 5 m/S 739 mmHg 49%
08:00 +10°C° 0 mm 5 m/S 740 mmHg 52%
09:00 +13°C° 0 mm 5 m/S 741 mmHg 49%
10:00 +14°C° 0 mm 5 m/S 741 mmHg 47%
11:00 +15°C° 0 mm 5 m/S 742 mmHg 44%
12:00 +16°C° 0 mm 6 m/S 741 mmHg 43%
13:00 +16°C° 0 mm 6 m/S 741 mmHg 41%
14:00 +17°C° 0 mm 6 m/S 741 mmHg 40%
15:00 +16°C° 0 mm 5 m/S 741 mmHg 44%
16:00 +14°C° 0 mm 4 m/S 742 mmHg 48%
17:00 +13°C° 0 mm 4 m/S 742 mmHg 52%
18:00 +12°C° 0 mm 3 m/S 742 mmHg 55%
19:00 +11°C° 0 mm 3 m/S 743 mmHg 57%
20:00 +10°C° 0 mm 3 m/S 744 mmHg 59%
21:00 +10°C° 0 mm 3 m/S 744 mmHg 60%
22:00 +9°C° 0 mm 3 m/S 744 mmHg 62%
23:00 +9°C° 0 mm 3 m/S 744 mmHg 63%

1 Februar, Montag

Zeit Temperatur Niederschläge Wind Luftdruck Luftfeuchtigkeit
00:00 +8°C° 0 mm 3 m/S 744 mmHg 64%
01:00 +8°C° 0 mm 3 m/S 744 mmHg 64%
02:00 +8°C° 0 mm 3 m/S 744 mmHg 65%
03:00 +7°C° 0 mm 3 m/S 744 mmHg 66%
04:00 +7°C° 0 mm 3 m/S 744 mmHg 67%
05:00 +6°C° 0 mm 2 m/S 744 mmHg 68%
06:00 +7°C° 0 mm 2 m/S 744 mmHg 64%
07:00 +8°C° 0 mm 2 m/S 745 mmHg 60%
08:00 +9°C° 0 mm 2 m/S 745 mmHg 57%
09:00 +12°C° 0 mm 2 m/S 745 mmHg 50%
10:00 +13°C° 0 mm 2 m/S 745 mmHg 43%
11:00 +15°C° 0 mm 2 m/S 745 mmHg 36%
12:00 +16°C° 0 mm 2 m/S 744 mmHg 34%
13:00 +16°C° 0 mm 2 m/S 743 mmHg 32%
14:00 +17°C° 0 mm 2 m/S 742 mmHg 30%
15:00 +16°C° 0 mm 2 m/S 742 mmHg 34%
16:00 +15°C° 0 mm 2 m/S 741 mmHg 38%
17:00 +14°C° 0 mm 2 m/S 741 mmHg 42%
18:00 +13°C° 0 mm 2 m/S 741 mmHg 45%
19:00 +12°C° 0 mm 2 m/S 741 mmHg 48%
20:00 +10°C° 0 mm 3 m/S 741 mmHg 51%
21:00 +10°C° 0 mm 3 m/S 741 mmHg 53%
22:00 +10°C° 0 mm 3 m/S 741 mmHg 54%
23:00 +9°C° 0 mm 3 m/S 740 mmHg 56%

2 Februar, Dienstag

Zeit Temperatur Niederschläge Wind Luftdruck Luftfeuchtigkeit
00:00 +9°C° 0 mm 3 m/S 740 mmHg 57%
01:00 +8°C° 0 mm 3 m/S 740 mmHg 59%
02:00 +8°C° 0 mm 3 m/S 739 mmHg 61%
03:00 +8°C° 0 mm 3 m/S 739 mmHg 64%
04:00 +7°C° 0 mm 3 m/S 738 mmHg 67%
05:00 +7°C° 0 mm 3 m/S 738 mmHg 70%
06:00 +8°C° 0 mm 3 m/S 738 mmHg 68%
07:00 +8°C° 0 mm 4 m/S 738 mmHg 66%
08:00 +9°C° 0 mm 5 m/S 739 mmHg 65%
09:00 +12°C° 0 mm 5 m/S 738 mmHg 62%
10:00 +14°C° 0 mm 6 m/S 738 mmHg 58%
11:00 +16°C° 0 mm 6 m/S 738 mmHg 55%
12:00 +17°C° 0 mm 6 m/S 737 mmHg 54%
13:00 +18°C° 0 mm 7 m/S 736 mmHg 53%
14:00 +18°C° 0 mm 7 m/S 735 mmHg 52%
15:00 +19°C° 0 mm 6 m/S 735 mmHg 56%
16:00 +17°C° 0 mm 5 m/S 734 mmHg 61%
17:00 +17°C° 0 mm 5 m/S 734 mmHg 65%
18:00 +16°C° 0 mm 5 m/S 734 mmHg 68%
19:00 +15°C° 0 mm 6 m/S 734 mmHg 72%
20:00 +15°C° 0 mm 6 m/S 734 mmHg 76%
21:00 +15°C° 0 mm 7 m/S 734 mmHg 78%
22:00 +15°C° 0 mm 7 m/S 734 mmHg 80%
23:00 +15°C° 0 mm 7 m/S 734 mmHg 83%
Mehr zeigen

Wir brauchen deine Erlaubnis

Meteoprog und unser Service Anbieter werden persönliche Daten aufbewahren, so wie Cookies, Geräte Bezeichnung oder ähnliche Technologien von deinem Gerät und Prozess, so wie Persönliche Daten Inhalte und Werbungen, genauso wie social Media und den Verkehr zu analysieren.

  • Aufbewahrung und/oder Zugang zu deiner Geräte Informationen.

    Cookies, Geräte Bezeichnung oder andere Informationen, können aufbewahrt oder Zugang zu deinem Gerät erhalten, für den Grund, der oben angegeben wird.

  • Personalisierte Werbung und Inhalte, Messungen, Einblick in das Publikum und Produkt Entwicklung.

    Werbungen und Inhalte können personalisiert werden, basierend auf ein Profil. Mehr Daten können besser personalisierte Werbungen und Inhalte hinzufügen. Werbung und Inhalte können gezeigt und gemessen werden. Einblicke über das Publikum, welche die Werbung gesehen haben und den Inhalt, können abgeleitet werden. So wie Daten können genutzt werden, um es zu verbessern oder die Benutzer Erfahrung zu verbessern das System und die Software.

Wenn du “Ich stimme zu” klickst, erlaubst du uns, die Cookies zu benutzen die Geräte Bezeichnung, den Web oder ähnliche Technologien zu benutzen. Deine Settings, können in deinem Gerät bei deinem Browser geändert werden.

Für den bestimmten Zweck, berechtigten Interessen beruhen darauf, mehr als auf den Inhalt. Du kannst mehr darüber in unseren Privaten und Cookie Politik lesen.